(°C)
(°C)
-6°
-5°
-5°
-5°
-5°
-5°
-5°
SE
SE
SE
SE
SE
SE
SSE
(كم/سا)
22-41
23-41
23-42
23-43
23-41
23-42
22-41
(مم)
0
0
0
0
0
0.9
0.8
(%)
0
6
20
28
67
87
97

مستوى ارتفاع الشمس

/ 9.2°
sun-icon
UV 0
08:25
16:11
الربع الأخير (270°)
23:40
14:08

متر ل55.6°شمال 37.27°شرق (UUWW)

الوقت الشروط درجة الحرارة/
نقطة الندى
رياح مجال رؤية حالة الطقس غيوم الضغط تغيير خام
MVFR 1°C / -1°C 140º 14kt >10km - Overcast 1200ft 1002 No Significant change. Runway 06: Damp, 51-100% contamination with <1mm, friction coefficient 0.60. UUWW 271100Z 14007MPS 9999 OVC012 01/M01 Q1002 R06/190060 NOSIG
MVFR 1°C / -1°C 140º 12kt. Wind Shear present on Runway 06. >10km - Broken Clouds 1200ft
Overcast 3000ft
1003 No Significant change. Runway 06: Damp, 51-100% contamination with <1mm, friction coefficient 0.60. UUWW 271030Z 14006MPS 9999 BKN012 OVC030 01/M01 Q1003 WS R06 R06/190060 NOSIG
MVFR 1°C / -1°C 140º 14kt. Wind Shear present on Runway 06. >10km - Broken Clouds 1300ft
Overcast 2600ft
1003 No Significant change. Runway 06: Damp, 51-100% contamination with <1mm, friction coefficient 0.60. UUWW 271000Z 14007MPS 9999 BKN013 OVC026 01/M01 Q1003 WS R06 R06/190060 NOSIG
VFR 1°C / -2°C 140º 14kt >10km - Few Clouds 1300ft
Overcast 3300ft
1004 No Significant change. Runway 06: Damp, 51-100% contamination with <1mm, friction coefficient 0.60. UUWW 270930Z 14007MPS 9999 FEW013 OVC033 01/M02 Q1004 R06/190060 NOSIG
VFR 1°C / -2°C 130º 14kt Gust 23kt >10km - Overcast 3300ft 1004 No Significant change. Runway 19: Wet or puddles, 51-100% contamination with <1mm, friction coefficient 0.45. UUWW 270900Z 13007G12MPS 9999 OVC033 01/M02 Q1004 R19/290045 NOSIG
VFR 1°C / -2°C 130º 10kt 9000m Light Showers Snow 3.00mm precipitation Vertical Visibility of 0ft. 1005 No Significant change. Runway 19: Wet or puddles, 51-100% contamination with <1mm, friction coefficient 0.45. UUWW 270830Z 13005MPS 9000 -SHSN BKN031CB 01/M02 Q1005 R19/290045 NOSIG
MVFR 2°C / -2°C 140º 10kt >10km - Broken Clouds 1400ft
Overcast 3000ft
1006 No Significant change. Runway 24: Damp, 51-100% contamination with <1mm, friction coefficient 0.60. UUWW 270800Z 14005MPS 9999 BKN014 OVC030 02/M02 Q1006 R24/190060 NOSIG
MVFR 2°C / -1°C 150º 10kt Gust 19kt >10km - Broken Clouds 1400ft
Overcast 3000ft
1006 No Significant change. Runway 24: Damp, 51-100% contamination with <1mm, friction coefficient 0.60. UUWW 270730Z 15005G10MPS 9999 BKN014 OVC030 02/M01 Q1006 R24/190060 NOSIG
MVFR 2°C / -1°C 140º 8kt >10km - Overcast 2900ft 1006 No Significant change. Runway 24: Damp, 51-100% contamination with <1mm, friction coefficient 0.60. UUWW 270700Z 14004MPS 9999 OVC029 02/M01 Q1006 R24/190060 NOSIG
MVFR 2°C / -1°C 140º 8kt >10km - Overcast 2800ft 1007 No Significant change. Runway 24: Damp, 51-100% contamination with <1mm, friction coefficient 0.60. UUWW 270630Z 14004MPS 9999 OVC028 02/M01 Q1007 R24/190060 NOSIG
MVFR 2°C / 0°C 150º 8kt >10km - Overcast 3000ft 1007 No Significant change. Runway 24: Damp, 51-100% contamination with <1mm, friction coefficient 0.60. UUWW 270600Z 15004MPS 9999 OVC030 02/M00 Q1007 R24/190060 NOSIG
MVFR 2°C / 0°C 160º 8kt >10km - Few Clouds 1300ft
Overcast 3000ft
1007 No Significant change. Runway 24: Damp, 51-100% contamination with <1mm, friction coefficient 0.60. UUWW 270530Z 16004MPS 9999 FEW013 OVC030 02/M00 Q1007 R24/190060 NOSIG
MVFR 2°C / 0°C 170º 8kt >10km - Broken Clouds 1100ft
Overcast 2900ft
1007 No Significant change. Runway 24: Damp, 51-100% contamination with <1mm, friction coefficient 0.60. UUWW 270500Z 17004MPS 9999 BKN011 OVC029 02/M00 Q1007 R24/190060 NOSIG
MVFR 2°C / 0°C 160º 8kt >10km - Broken Clouds 1000ft
Overcast 2700ft
1007 No Significant change. Runway 24: Damp, 51-100% contamination with <1mm, friction coefficient 0.60. UUWW 270430Z 16004MPS 9999 BKN010 OVC027 02/M00 Q1007 R24/190060 NOSIG
MVFR 2°C / 0°C 170º 8kt >10km - Overcast 1000ft 1007 No Significant change. Runway 24: Damp, 51-100% contamination with <1mm, friction coefficient 0.60. UUWW 270400Z 17004MPS 9999 OVC010 02/M00 Q1007 R24/190060 NOSIG
MVFR 2°C / 0°C 160º 8kt >10km - Overcast 1000ft 1007 No Significant change. Runway 24: Damp, 51-100% contamination with <1mm, friction coefficient 0.60. UUWW 270330Z 16004MPS 9999 OVC010 02/00 Q1007 R24/190060 NOSIG
MVFR 2°C / 0°C 160º 6kt 9000m - Overcast 1000ft 1007 No Significant change. Runway 24: Damp, 51-100% contamination with <1mm, friction coefficient 0.55. UUWW 270300Z 16003MPS 9000 OVC010 02/00 Q1007 R24/190055 NOSIG
IFR 2°C / 0°C 160º 6kt 9000m - Overcast 900ft 1007 No Significant change. Runway 24: Damp, 51-100% contamination with <1mm, friction coefficient 0.55. UUWW 270230Z 16003MPS 9000 OVC009 02/00 Q1007 R24/190055 NOSIG
IFR 2°C / 0°C 160º 6kt 9000m - Overcast 900ft 1007 No Significant change. Runway 24: Damp, 51-100% contamination with <1mm, friction coefficient 0.55. UUWW 270200Z 16003MPS 9000 OVC009 02/00 Q1007 R24/190055 NOSIG
IFR 2°C / 1°C 150º 6kt >10km - Overcast 700ft 1007 No Significant change. Runway 24: Damp, 51-100% contamination with <1mm, friction coefficient 0.55. UUWW 270130Z 15003MPS 9999 OVC007 02/01 Q1007 R24/190055 NOSIG
IFR 2°C / 1°C 150º 6kt 9000m - Overcast 900ft 1007 No Significant change. Runway 24: Damp, 51-100% contamination with <1mm, friction coefficient 0.55. UUWW 270100Z 15003MPS 9000 OVC009 02/01 Q1007 R24/190055 NOSIG
IFR 2°C / 1°C 150º 6kt 6000m - Overcast 600ft 1007 No Significant change. Runway 24: Damp, 51-100% contamination with <1mm, friction coefficient 0.55. UUWW 270030Z 15003MPS 6000 OVC006 02/01 Q1007 R24/190055 NOSIG
LIFR 2°C / 1°C 170º 4kt 4100m Mist Vertical Visibility of 0ft. 1008 No Significant change. Runway 24: Damp, 51-100% contamination with <1mm, friction coefficient 0.55. UUWW 270000Z 17002MPS 4100 BR OVC004 02/01 Q1008 R24/190055 NOSIG
IFR 2°C / 1°C 180º 6kt 7000m - Overcast 500ft 1008 No Significant change. Runway 24: Damp, 51-100% contamination with <1mm, friction coefficient 0.55. UUWW 262330Z 18003MPS 7000 OVC005 02/01 Q1008 R24/190055 NOSIG

MVFR

1°C / -1°C

[أكثر]
رياح 140º 14kt
مجال رؤية >10km
حالة الطقس -
غيوم Overcast 1200ft
الضغط 1002
تغيير No Significant change. Runway 06: Damp, 51-100% contamination with <1mm, friction coefficient 0.60.
خام UUWW 271100Z 14007MPS 9999 OVC012 01/M01 Q1002 R06/190060 NOSIG

MVFR

1°C / -1°C

[أكثر]
رياح 140º 12kt. Wind Shear present on Runway 06.
مجال رؤية >10km
حالة الطقس -
غيوم Broken Clouds 1200ft
Overcast 3000ft
الضغط 1003
تغيير No Significant change. Runway 06: Damp, 51-100% contamination with <1mm, friction coefficient 0.60.
خام UUWW 271030Z 14006MPS 9999 BKN012 OVC030 01/M01 Q1003 WS R06 R06/190060 NOSIG

MVFR

1°C / -1°C

[أكثر]
رياح 140º 14kt. Wind Shear present on Runway 06.
مجال رؤية >10km
حالة الطقس -
غيوم Broken Clouds 1300ft
Overcast 2600ft
الضغط 1003
تغيير No Significant change. Runway 06: Damp, 51-100% contamination with <1mm, friction coefficient 0.60.
خام UUWW 271000Z 14007MPS 9999 BKN013 OVC026 01/M01 Q1003 WS R06 R06/190060 NOSIG

VFR

1°C / -2°C

[أكثر]
رياح 140º 14kt
مجال رؤية >10km
حالة الطقس -
غيوم Few Clouds 1300ft
Overcast 3300ft
الضغط 1004
تغيير No Significant change. Runway 06: Damp, 51-100% contamination with <1mm, friction coefficient 0.60.
خام UUWW 270930Z 14007MPS 9999 FEW013 OVC033 01/M02 Q1004 R06/190060 NOSIG

VFR

1°C / -2°C

[أكثر]
رياح 130º 14kt Gust 23kt
مجال رؤية >10km
حالة الطقس -
غيوم Overcast 3300ft
الضغط 1004
تغيير No Significant change. Runway 19: Wet or puddles, 51-100% contamination with <1mm, friction coefficient 0.45.
خام UUWW 270900Z 13007G12MPS 9999 OVC033 01/M02 Q1004 R19/290045 NOSIG

VFR

1°C / -2°C

[أكثر]
رياح 130º 10kt
مجال رؤية 9000m
حالة الطقس Light Showers Snow 3.00mm precipitation
غيوم Vertical Visibility of 0ft.
الضغط 1005
تغيير No Significant change. Runway 19: Wet or puddles, 51-100% contamination with <1mm, friction coefficient 0.45.
خام UUWW 270830Z 13005MPS 9000 -SHSN BKN031CB 01/M02 Q1005 R19/290045 NOSIG

MVFR

2°C / -2°C

[أكثر]
رياح 140º 10kt
مجال رؤية >10km
حالة الطقس -
غيوم Broken Clouds 1400ft
Overcast 3000ft
الضغط 1006
تغيير No Significant change. Runway 24: Damp, 51-100% contamination with <1mm, friction coefficient 0.60.
خام UUWW 270800Z 14005MPS 9999 BKN014 OVC030 02/M02 Q1006 R24/190060 NOSIG

MVFR

2°C / -1°C

[أكثر]
رياح 150º 10kt Gust 19kt
مجال رؤية >10km
حالة الطقس -
غيوم Broken Clouds 1400ft
Overcast 3000ft
الضغط 1006
تغيير No Significant change. Runway 24: Damp, 51-100% contamination with <1mm, friction coefficient 0.60.
خام UUWW 270730Z 15005G10MPS 9999 BKN014 OVC030 02/M01 Q1006 R24/190060 NOSIG

MVFR

2°C / -1°C

[أكثر]
رياح 140º 8kt
مجال رؤية >10km
حالة الطقس -
غيوم Overcast 2900ft
الضغط 1006
تغيير No Significant change. Runway 24: Damp, 51-100% contamination with <1mm, friction coefficient 0.60.
خام UUWW 270700Z 14004MPS 9999 OVC029 02/M01 Q1006 R24/190060 NOSIG

MVFR

2°C / -1°C

[أكثر]
رياح 140º 8kt
مجال رؤية >10km
حالة الطقس -
غيوم Overcast 2800ft
الضغط 1007
تغيير No Significant change. Runway 24: Damp, 51-100% contamination with <1mm, friction coefficient 0.60.
خام UUWW 270630Z 14004MPS 9999 OVC028 02/M01 Q1007 R24/190060 NOSIG

MVFR

2°C / 0°C

[أكثر]
رياح 150º 8kt
مجال رؤية >10km
حالة الطقس -
غيوم Overcast 3000ft
الضغط 1007
تغيير No Significant change. Runway 24: Damp, 51-100% contamination with <1mm, friction coefficient 0.60.
خام UUWW 270600Z 15004MPS 9999 OVC030 02/M00 Q1007 R24/190060 NOSIG

MVFR

2°C / 0°C

[أكثر]
رياح 160º 8kt
مجال رؤية >10km
حالة الطقس -
غيوم Few Clouds 1300ft
Overcast 3000ft
الضغط 1007
تغيير No Significant change. Runway 24: Damp, 51-100% contamination with <1mm, friction coefficient 0.60.
خام UUWW 270530Z 16004MPS 9999 FEW013 OVC030 02/M00 Q1007 R24/190060 NOSIG

MVFR

2°C / 0°C

[أكثر]
رياح 170º 8kt
مجال رؤية >10km
حالة الطقس -
غيوم Broken Clouds 1100ft
Overcast 2900ft
الضغط 1007
تغيير No Significant change. Runway 24: Damp, 51-100% contamination with <1mm, friction coefficient 0.60.
خام UUWW 270500Z 17004MPS 9999 BKN011 OVC029 02/M00 Q1007 R24/190060 NOSIG

MVFR

2°C / 0°C

[أكثر]
رياح 160º 8kt
مجال رؤية >10km
حالة الطقس -
غيوم Broken Clouds 1000ft
Overcast 2700ft
الضغط 1007
تغيير No Significant change. Runway 24: Damp, 51-100% contamination with <1mm, friction coefficient 0.60.
خام UUWW 270430Z 16004MPS 9999 BKN010 OVC027 02/M00 Q1007 R24/190060 NOSIG

MVFR

2°C / 0°C

[أكثر]
رياح 170º 8kt
مجال رؤية >10km
حالة الطقس -
غيوم Overcast 1000ft
الضغط 1007
تغيير No Significant change. Runway 24: Damp, 51-100% contamination with <1mm, friction coefficient 0.60.
خام UUWW 270400Z 17004MPS 9999 OVC010 02/M00 Q1007 R24/190060 NOSIG

MVFR

2°C / 0°C

[أكثر]
رياح 160º 8kt
مجال رؤية >10km
حالة الطقس -
غيوم Overcast 1000ft
الضغط 1007
تغيير No Significant change. Runway 24: Damp, 51-100% contamination with <1mm, friction coefficient 0.60.
خام UUWW 270330Z 16004MPS 9999 OVC010 02/00 Q1007 R24/190060 NOSIG

MVFR

2°C / 0°C

[أكثر]
رياح 160º 6kt
مجال رؤية 9000m
حالة الطقس -
غيوم Overcast 1000ft
الضغط 1007
تغيير No Significant change. Runway 24: Damp, 51-100% contamination with <1mm, friction coefficient 0.55.
خام UUWW 270300Z 16003MPS 9000 OVC010 02/00 Q1007 R24/190055 NOSIG

IFR

2°C / 0°C

[أكثر]
رياح 160º 6kt
مجال رؤية 9000m
حالة الطقس -
غيوم Overcast 900ft
الضغط 1007
تغيير No Significant change. Runway 24: Damp, 51-100% contamination with <1mm, friction coefficient 0.55.
خام UUWW 270230Z 16003MPS 9000 OVC009 02/00 Q1007 R24/190055 NOSIG

IFR

2°C / 0°C

[أكثر]
رياح 160º 6kt
مجال رؤية 9000m
حالة الطقس -
غيوم Overcast 900ft
الضغط 1007
تغيير No Significant change. Runway 24: Damp, 51-100% contamination with <1mm, friction coefficient 0.55.
خام UUWW 270200Z 16003MPS 9000 OVC009 02/00 Q1007 R24/190055 NOSIG

IFR

2°C / 1°C

[أكثر]
رياح 150º 6kt
مجال رؤية >10km
حالة الطقس -
غيوم Overcast 700ft
الضغط 1007
تغيير No Significant change. Runway 24: Damp, 51-100% contamination with <1mm, friction coefficient 0.55.
خام UUWW 270130Z 15003MPS 9999 OVC007 02/01 Q1007 R24/190055 NOSIG

IFR

2°C / 1°C

[أكثر]
رياح 150º 6kt
مجال رؤية 9000m
حالة الطقس -
غيوم Overcast 900ft
الضغط 1007
تغيير No Significant change. Runway 24: Damp, 51-100% contamination with <1mm, friction coefficient 0.55.
خام UUWW 270100Z 15003MPS 9000 OVC009 02/01 Q1007 R24/190055 NOSIG

IFR

2°C / 1°C

[أكثر]
رياح 150º 6kt
مجال رؤية 6000m
حالة الطقس -
غيوم Overcast 600ft
الضغط 1007
تغيير No Significant change. Runway 24: Damp, 51-100% contamination with <1mm, friction coefficient 0.55.
خام UUWW 270030Z 15003MPS 6000 OVC006 02/01 Q1007 R24/190055 NOSIG

LIFR

2°C / 1°C

[أكثر]
رياح 170º 4kt
مجال رؤية 4100m
حالة الطقس Mist
غيوم Vertical Visibility of 0ft.
الضغط 1008
تغيير No Significant change. Runway 24: Damp, 51-100% contamination with <1mm, friction coefficient 0.55.
خام UUWW 270000Z 17002MPS 4100 BR OVC004 02/01 Q1008 R24/190055 NOSIG

IFR

2°C / 1°C

[أكثر]
رياح 180º 6kt
مجال رؤية 7000m
حالة الطقس -
غيوم Overcast 500ft
الضغط 1008
تغيير No Significant change. Runway 24: Damp, 51-100% contamination with <1mm, friction coefficient 0.55.
خام UUWW 262330Z 18003MPS 7000 OVC005 02/01 Q1008 R24/190055 NOSIG

انقر ل55.6°شمال 37.27°شرق (UUWW)

From till


Maximum Temperature 3ºC on . Minimum Temperature 1ºC on .
From till Wind 150º 10kt. Visibility 8000m. Overcast 1100ft.
Temporarly from till Wind 160º 16kt. Gust 29kt. Visibility 1500m. Showers Rain Showers Snow . Broken Clouds 300ft. Broken Clouds 1600ft.
Temporarly from till Visibility 1100m. Light Showers Rain Light Showers Snow Mist . Broken Clouds 400ft. Broken Clouds 1200ft.
Becoming from till Wind 220º 10kt. Visibility 8000m. Overcast 1100ft.

خام: TAF UUWW 270758Z 2709/2809 15005MPS 8000 OVC011 TX03/2803Z TN01/2718Z TEMPO 2712/2722 16008G15MPS 1500 SHRASN BKN003 BKN016CB TEMPO 2722/2809 1100 -SHRASN BR BKN004 BKN012CB BECMG 2803/2806 22005MPS

صور الأقمار الصناعية الملتقطة و الأمطار حالياً ل55.6°شمال 37.27°شرق

المؤشر يدل على موقع 55.6°شمال 37.27°شرق. [أكثر]

تجمع صورة الأقمار الصناعية في الوقت الفعلي بين الضوء المرئي أثناء النهار والأشعة تحت الحمراء أثناء الليل. لا تبدو الصورة مظلمة ليلاً، لأن الأشعة تحت الحمراء يمكنها الكشف عن الاختلافات في درجة الحرارة. لسوء الحظ ، يصعب التمييز بين السحب المنخفضة والضباب ودرجات حرارة الأرض ، وبالتالي يمكن أن تكون الصور غير مرئية تقريبًا أثناء الليل. يتم تحديث صور الأقمار الصناعية Meteosat الخاصة بأوروبا في الوقت الفعلي كل 5 دقائق، بينما يتم تحديث صور GOES-16 / GOES-17 (أمريكا الشمالية والجنوبية) و Himawari (آسيا) كل 10 دقائق.

حقوق النسخ 2021 EUMETSAT / meteoblue. / حقوق النسخ 2021 meteoblue

رادار وهطول الأمطار التنبؤ الآني ل55.6°شمال 37.27°شرق

رذاذ
ضوء
معتدل
ثقيل
ثقيل جدا
وابل

مؤشر المكان يشير الى 55.6°شمال 37.27°شرق. تظهر في هذه الرسوم المتحركة هطول الامطار بالرادار للساعة الماضية, و توقعات 1h. رذاذ أو تساقط ثلوج خفيف قد يكون غير مرئي للرادار. كثافة هطول الأمطار مرمزة بالألوان وتتراوح من الأزرق الفاتح إلى البرتقالي.